Regional Weather Roundup
Issued by NWS

Home | Current Version | Previous Version | Text Only | Print | Product List | Glossary Off
Versions: 1 2 3 4 5 6 7 8 9 10 11 12 13 14 15 16 17 18 19 20 21 22 23 24 25 26 27 28 29 30 31 32 33 34 35 36 37 38 39 40 41 42 43 44 45 46 47 48 49 50

000
ASUS45 KSLC 141610
RWRUT

UTAH REGIONAL WEATHER ROUNDUP
NATIONAL WEATHER SERVICE SALT LAKE CITY UT
900 AM MST THU DEC 14 2017

UTZ001>011-023>025-141700-

NORTHERN UTAH

CITY           SKY/WX    TMP DP  RH WIND       PRES   REMARKS
BRIGHAM CITY   CLEAR     20  17  89 E5        30.44R WCI  13
DUGWAY         MOSUNNY   12  10  92 VRB1      30.44R FOG
HILL AFB       NOT AVBL
LOGAN          CLEAR     17  12  80 NW3       30.46R HAZE
OGDEN          SUNNY     25  21  85 SE6       30.42R WCI  18
SALT LAKE CITY MOSUNNY   28  25  88 SE5       30.43R FOG     WCI  23
TOOELE VALLEY  SUNNY     23  23 100 S6        30.44R WCI  16
WENDOVER       PTCLDY    19  16  88 CALM      30.45S
HEBER CITY       N/A     27  23  86 W3        30.37R
WEST JORDAN    MOSUNNY   25  25 100 SW6       30.43R WCI  18

$$

UTZ011>015-024>027-141700-

CENTRAL/NORTHEAST UTAH

CITY           SKY/WX    TMP DP  RH WIND       PRES   REMARKS
PROVO AIRPORT  CLOUDY    31  26  82 SW6       30.44R WCI  25
MOAB/CANYONLAN SUNNY     39  22  50 NE5       30.27R
DELTA          MOSUNNY   18  16  93 E5        30.43S WCI  11
PRICE          SUNNY     35  22  58 NE15G25   30.28R WCI  25
RICHFIELD      MOSUNNY   30  21  69 NE7       30.40R HAZE    WCI  23
ROOSEVELT      MOSUNNY   27  18  69 CALM      30.38R
VERNAL         SUNNY     33  19  56 SW3       30.35R

$$

UTZ013>016-019>022-027-141700-

SOUTHERN UTAH

CITY           SKY/WX    TMP DP  RH WIND       PRES   REMARKS
BRYCE CANYON     N/A    N/A N/A N/A MISG      30.28R
CEDAR CITY     MOSUNNY   25  17  72 N9        30.33R WCI  15
MILFORD        SUNNY     24  17  74 NE6       30.40R WCI  17
ST GEORGE      SUNNY     47  22  37 VRB5      30.25R
HANKSVILLE     SUNNY     36  21  55 CALM      30.31R
KANAB          SUNNY     43  19  39 N13G21    30.27R
BLANDING         N/A     38  21  51 W9        30.21R WCI  31

$$

REGIONAL REPORTS     COLORADO/ARIZONA

CITY           SKY/WX    TMP DP  RH WIND       PRES   REMARKS
CRAIG, CO      CLOUDY    18  13  80 SW10      30.32R WCI   6
GRAND JUNCTION MOSUNNY   33  23  66 NW7       30.28R WCI  27
RIFLE, CO      SUNNY     35  22  58 W10       30.28R WCI  27
MONTROSE, CO   CLOUDY    32  25  75 W3        30.25R
CORTEZ, CO     PTSUNNY   38  24  57 NW12      30.12R WCI  30
COLORADO CITY    N/A     36  21  55 CALM      30.26R
PAGE, AZ       SUNNY     47  24  40 N13G21    30.20R
GRAND CANYON   SUNNY     40  20  44 NE16G26   30.19R WCI  31
KINGMAN, AZ    SUNNY     45  14  28 E10       30.14R
FLAGSTAFF, AZ  SUNNY     36  18  48 NE32G46   30.10F WCI  23

$$

REGIONAL REPORTS    NEVADA/IDAHO/WYOMING

CITY           SKY/WX    TMP DP  RH WIND       PRES   REMARKS
LAS VEGAS, NV  SUNNY     57  16  20 N15       30.18S
ELY, NY        CLEAR     27  20  75 N8        30.39R WCI  19
ELKO, NV       MOCLDY    13  10  88 SW3       30.45R
POCATELLO, ID  FOG       21  19  92 CALM      30.51R VSB 1
BURLEY, ID     FOG       23  20  88 E5        30.48S VSB 1/4 WCI  17
FORT BRIDGER,    N/A     27  26  93 SW12      30.35F WCI  17
EVANSTON, WY   CLOUDY    23  21  92 S5        30.35S WCI  17
ROCK SPRINGS,  CLOUDY    22  20  92 CALM      30.33R

$$



USA.gov is the U.S. government's official web portal to all federal, state and local government web resources and services.